Time,TemperatureF,DewpointF,PressureIn,WindDirection,WindDirectionDegrees,WindSpeedMPH,WindSpeedGustMPH,Humidity,HourlyPrecipIn,Conditions,Clouds,dailyrainin,SoftwareType,DateUTC
2013-04-06 00:02:00,39.4,29.0,29.73,NNW,345,10.0,18.0,66,0.00,,,0.00,VWS V13.01,2013-04-06 04:02:00,
2013-04-06 00:32:00,38.7,26.8,29.74,North,355,14.0,16.0,62,0.00,,,0.00,VWS V13.01,2013-04-06 04:32:00,
2013-04-06 01:00:00,39.4,29.0,29.73,NNW,345,10.0,18.0,66,0.00,,,0.00,VWS V13.01,2013-04-06 05:00:00,
2013-04-06 01:02:00,38.1,25.1,29.75,NNW,345,15.0,21.0,59,0.00,,,0.00,VWS V13.01,2013-04-06 05:02:00,
2013-04-06 01:30:00,38.7,26.8,29.74,North,355,14.0,16.0,62,0.00,,,0.00,VWS V13.01,2013-04-06 05:30:00,
2013-04-06 01:32:00,37.5,23.7,29.76,NNW,342,11.0,23.0,57,0.00,,,0.00,VWS V13.01,2013-04-06 05:32:00,
2013-04-06 02:00:00,38.1,25.1,29.75,NNW,345,15.0,21.0,59,0.00,,,0.00,VWS V13.01,2013-04-06 06:00:00,
2013-04-06 02:02:00,36.4,20.9,29.77,North,350,21.0,25.0,53,0.00,,,0.00,VWS V13.01,2013-04-06 06:02:00,
2013-04-06 02:30:00,37.5,23.7,29.76,NNW,342,11.0,23.0,57,0.00,,,0.00,VWS V13.01,2013-04-06 06:30:00,
2013-04-06 03:00:00,36.4,20.9,29.77,North,350,21.0,25.0,53,0.00,,,0.00,VWS V13.01,2013-04-06 07:00:00,
2013-04-06 03:30:00,36.1,21.9,29.79,North,5,6.0,27.0,56,0.00,,,0.00,VWS V13.01,2013-04-06 07:30:00,
2013-04-06 04:00:00,35.2,20.2,29.80,NNW,340,15.0,29.0,54,0.00,,,0.00,VWS V13.01,2013-04-06 08:00:00,
2013-04-06 04:30:00,34.4,19.9,29.81,NNW,337,15.0,30.0,55,0.00,,,0.00,VWS V13.01,2013-04-06 08:30:00,
2013-04-06 05:00:00,33.9,20.7,29.82,NW,325,13.0,24.0,58,0.00,,,0.00,VWS V13.01,2013-04-06 09:00:00,
2013-04-06 05:30:00,33.4,19.8,29.84,NW,311,17.0,22.0,57,0.00,,,0.00,VWS V13.01,2013-04-06 09:30:00,
2013-04-06 06:00:00,33.0,17.3,29.85,NNW,329,11.0,27.0,52,0.00,,,0.00,VWS V13.01,2013-04-06 10:00:00,
2013-04-06 06:30:00,32.7,16.1,29.87,NW,309,13.0,31.0,50,0.00,,,0.00,VWS V13.01,2013-04-06 10:30:00,
2013-04-06 07:00:00,31.8,13.4,29.91,NNW,336,16.0,33.0,46,0.00,,,0.00,VWS V13.01,2013-04-06 11:00:00,
2013-04-06 07:30:00,30.9,13.1,29.93,NNW,345,27.0,32.0,47,0.00,,,0.00,VWS V13.01,2013-04-06 11:30:00,
2013-04-06 08:00:00,30.5,13.6,29.95,NNW,348,23.0,40.0,49,0.00,,,0.00,VWS V13.01,2013-04-06 12:00:00,
2013-04-06 08:30:00,30.3,13.4,29.98,NNW,343,19.0,32.0,49,0.00,,,0.00,VWS V13.01,2013-04-06 12:30:00,
2013-04-06 09:00:00,29.9,12.1,29.99,North,0,21.0,36.0,47,0.00,,,0.00,VWS V13.01,2013-04-06 13:00:00,
2013-04-06 09:30:00,29.6,11.9,30.00,North,0,21.0,32.0,47,0.00,,,0.00,VWS V13.01,2013-04-06 13:30:00,
2013-04-06 10:00:00,30.5,12.2,30.00,NNW,338,22.0,34.0,46,0.00,,,0.00,VWS V13.01,2013-04-06 14:00:00,
2013-04-06 10:30:00,30.6,11.3,30.01,NNW,338,21.0,34.0,44,0.00,,,0.00,VWS V13.01,2013-04-06 14:30:00,
2013-04-06 11:00:00,30.9,11.6,30.02,NNW,338,25.0,38.0,44,0.00,,,0.00,VWS V13.01,2013-04-06 15:00:00,
2013-04-06 11:30:00,31.6,11.2,30.03,NNW,338,22.0,33.0,42,0.00,,,0.00,VWS V13.01,2013-04-06 15:30:00,
2013-04-06 12:00:00,32.6,11.5,30.04,North,0,19.0,33.0,41,0.00,,,0.00,VWS V13.01,2013-04-06 16:00:00,
2013-04-06 12:30:00,34.0,12.8,30.05,North,0,18.0,29.0,41,0.00,,,0.00,VWS V13.01,2013-04-06 16:30:00,
2013-04-06 13:00:00,34.2,11.8,30.06,NNW,338,18.0,27.0,39,0.00,,,0.00,VWS V13.01,2013-04-06 17:00:00,
2013-04-06 13:30:00,34.6,11.0,30.07,NW,315,18.0,28.0,37,0.00,,,0.00,VWS V13.01,2013-04-06 17:30:00,
2013-04-06 14:00:00,35.7,10.1,30.08,NNW,338,19.0,30.0,34,0.00,,,0.00,VWS V13.01,2013-04-06 18:00:00,
2013-04-06 14:30:00,36.7,10.3,30.09,NNW,338,20.0,33.0,33,0.00,,,0.00,VWS V13.01,2013-04-06 18:30:00,
2013-04-06 15:00:00,37.5,8.1,30.08,North,0,21.0,33.0,29,0.00,,,0.00,VWS V13.01,2013-04-06 19:00:00,
2013-04-06 15:30:00,37.7,7.6,30.09,NNW,338,19.0,33.0,28,0.00,,,0.00,VWS V13.01,2013-04-06 19:30:00,
2013-04-06 16:00:00,39.4,9.0,30.09,North,0,16.0,31.0,28,0.00,,,0.00,VWS V13.01,2013-04-06 20:00:00,
2013-04-06 16:30:00,39.2,6.3,30.09,NNW,338,16.0,26.0,25,0.00,,,0.00,VWS V13.01,2013-04-06 20:30:00,
2013-04-06 17:00:00,39.6,6.7,30.10,North,0,16.0,24.0,25,0.00,,,0.00,VWS V13.01,2013-04-06 21:00:00,
2013-04-06 17:30:00,40.2,8.1,30.10,North,0,15.0,33.0,26,0.00,,,0.00,VWS V13.01,2013-04-06 21:30:00,
2013-04-06 18:00:00,39.9,7.8,30.12,North,0,16.0,28.0,26,0.00,,,0.00,VWS V13.01,2013-04-06 22:00:00,
2013-04-06 18:30:00,40.2,8.1,30.14,NNW,338,15.0,26.0,26,0.00,,,0.00,VWS V13.01,2013-04-06 22:30:00,
2013-04-06 19:00:00,40.4,9.1,30.15,NNW,338,9.0,23.0,27,0.00,,,0.00,VWS V13.01,2013-04-06 23:00:00,
2013-04-06 19:30:00,39.7,8.5,30.17,NNW,338,10.0,20.0,27,0.00,,,0.00,VWS V13.01,2013-04-06 23:30:00,
2013-04-06 20:00:00,38.6,9.1,30.19,NNW,338,9.0,14.0,29,0.00,,,0.00,VWS V13.01,2013-04-07 00:00:00,
2013-04-06 20:30:00,38.0,8.6,30.20,NW,315,4.0,11.0,29,0.00,,,0.00,VWS V13.01,2013-04-07 00:30:00,
2013-04-06 21:00:00,37.1,9.3,30.23,WNW,292,3.0,6.0,31,0.00,,,0.00,VWS V13.01,2013-04-07 01:00:00,
2013-04-06 21:30:00,35.3,10.4,30.25,WNW,292,0.0,3.0,35,0.00,,,0.00,VWS V13.01,2013-04-07 01:30:00,
2013-04-06 22:00:00,33.0,16.4,30.27,WNW,292,0.0,0.0,50,0.00,,,0.00,VWS V13.01,2013-04-07 02:00:00,
2013-04-06 22:30:00,31.2,16.5,30.27,WNW,292,0.0,2.0,54,0.00,,,0.00,VWS V13.01,2013-04-07 02:30:00,
2013-04-06 23:00:00,31.5,16.8,30.28,WNW,292,0.0,1.0,54,0.00,,,0.00,VWS V13.01,2013-04-07 03:00:00,